Location: Daytona Beach
(29.2106°N, 81.0231°W)
Time: 00:21:08
(UTC-04:00)

X-37B - Pass Details

Date: 24 June 2021
Orbit: 383 x 392 km, 45.0° (Epoch: 01 July)

Event Time Altitude Azimuth Distance (km) Brightness Sun altitude
Exits shadow 05:13:03 26° 199° (SSW) 789 1.7 -14.3°
Drops below altitude 10° 05:15:11 10° 161° (SSE) 1,398 3.2 -13.9°
Sets 05:17:23 0° 149° (SSE) 2,250 4.4 -13.5°
